ETD716 OTHH-VOTV

Flight info

Callsign ETD716
Flight time N/A
Altitude 35000
Route BUNDU B415 SIXIV N318 LABRI/N0459F370 N318 TOLDA P570 EMURU M300 MESAN/N0456F390 M300 VASTU P895 CIA DINKA
Aircraft A20N/M-SDE2E3FGHIRWXY/LB1

Departure

Time 2026-05-05 09:53
Airport Hamad International Airport (OTHH)

Arrival

Time N/A
Airport Thiruvananthapuram International Airport (VOTV)
Time Latitude Longitude Altitude Speed Heading
2026-05-05 09:02 25.26741 51.61214 22 ft 0 kts 269°
2026-05-05 09:18 25.26741 51.61232 49 ft 2 kts 267°
2026-05-05 09:18 25.26742 51.61250 11 ft 2 kts 261°
2026-05-05 09:18 25.26748 51.61268 22 ft 2 kts 208°
2026-05-05 09:19 25.26759 51.61271 23 ft 1 kts 173°
2026-05-05 09:19 25.26761 51.61270 23 ft 0 kts 173°
2026-05-05 09:34 25.26756 51.61272 22 ft 3 kts 167°
2026-05-05 09:34 25.26740 51.61301 22 ft 6 kts 90°
2026-05-05 09:35 25.26752 51.61350 23 ft 7 kts 45°
2026-05-05 09:35 25.26869 51.61406 22 ft 11 kts 22°
2026-05-05 09:35 25.26946 51.61441 22 ft 13 kts 24°
2026-05-05 09:36 25.26991 51.61466 22 ft 1 kts 36°
2026-05-05 09:36 25.27005 51.61492 23 ft 6 kts 67°
2026-05-05 09:36 25.27020 51.61533 22 ft 0 kts 68°
2026-05-05 09:37 25.27024 51.61546 24 ft 4 kts 68°
2026-05-05 09:37 25.27042 51.61593 24 ft 9 kts 68°
2026-05-05 09:37 25.27061 51.61646 24 ft 0 kts 68°
2026-05-05 09:38 25.27066 51.61660 22 ft 3 kts 69°
2026-05-05 09:38 25.27066 51.61695 22 ft 5 kts 104°
2026-05-05 09:38 25.27034 51.61727 22 ft 7 kts 158°
2026-05-05 09:38 25.26979 51.61753 23 ft 10 kts 158°
2026-05-05 09:39 25.26907 51.61784 23 ft 12 kts 159°
2026-05-05 09:39 25.26818 51.61820 22 ft 15 kts 160°
2026-05-05 09:39 25.26718 51.61865 22 ft 17 kts 158°
2026-05-05 09:39 25.26605 51.61917 22 ft 18 kts 157°
2026-05-05 09:40 25.26559 51.61974 22 ft 9 kts 86°
2026-05-05 09:40 25.26551 51.62044 21 ft 10 kts 128°
2026-05-05 09:40 25.26529 51.62057 22 ft 0 kts 158°
2026-05-05 09:41 25.26527 51.62058 22 ft 1 kts 158°
2026-05-05 09:41 25.26508 51.62066 22 ft 5 kts 158°
2026-05-05 09:41 25.26461 51.62087 23 ft 9 kts 158°
2026-05-05 09:42 25.26391 51.62119 22 ft 13 kts 158°
2026-05-05 09:42 25.26364 51.62131 22 ft 2 kts 158°
2026-05-05 09:42 25.26353 51.62136 23 ft 2 kts 158°
2026-05-05 09:42 25.26341 51.62141 22 ft 2 kts 158°
2026-05-05 09:43 25.26333 51.62145 23 ft 1 kts 158°
2026-05-05 09:43 25.26310 51.62155 24 ft 6 kts 158°
2026-05-05 09:43 25.26258 51.62178 22 ft 10 kts 159°
2026-05-05 09:43 25.26180 51.62211 23 ft 14 kts 158°
2026-05-05 09:44 25.26080 51.62256 23 ft 17 kts 158°
2026-05-05 09:44 25.26025 51.62280 23 ft 10 kts 158°
2026-05-05 09:44 25.25948 51.62314 22 ft 14 kts 158°
2026-05-05 09:44 25.25845 51.62360 22 ft 18 kts 158°
2026-05-05 09:45 25.25723 51.62414 22 ft 15 kts 159°
2026-05-05 09:45 25.25644 51.62448 22 ft 0 kts 158°
2026-05-05 09:48 25.25638 51.62451 21 ft 4 kts 158°
2026-05-05 09:48 25.25607 51.62482 21 ft 4 kts 118°
2026-05-05 09:48 25.25607 51.62511 21 ft 2 kts 77°
2026-05-05 09:48 25.25608 51.62513 21 ft 0 kts 72°
2026-05-05 09:50 25.25610 51.62520 21 ft 2 kts 72°
2026-05-05 09:50 25.25622 51.62549 23 ft 6 kts 59°
2026-05-05 09:50 25.25656 51.62588 22 ft 8 kts 36°
2026-05-05 09:50 25.25717 51.62610 24 ft 11 kts
2026-05-05 09:51 25.25752 51.62604 23 ft 1 kts 341°
2026-05-05 09:51 25.25756 51.62603 22 ft 0 kts 341°
2026-05-05 09:51 25.25891 51.62543 22 ft 53 kts 338°
2026-05-05 09:52 25.26427 51.62306 22 ft 110 kts 338°
2026-05-05 09:52 25.27282 51.61927 25 ft 152 kts 338°
2026-05-05 09:52 25.28370 51.61441 64 ft 181 kts 338°
2026-05-05 09:52 25.29587 51.60854 240 ft 195 kts 340°
2026-05-05 09:53 25.30578 51.60372 1682 ft 124 kts 333°
2026-05-05 09:53 25.31275 51.59926 2333 ft 124 kts 341°
2026-05-05 09:53 25.32250 51.59878 2604 ft 150 kts 17°
2026-05-05 09:53 25.33180 51.60426 3061 ft 175 kts 30°
2026-05-05 09:54 25.34371 51.61230 3216 ft 217 kts 30°
2026-05-05 09:54 25.35659 51.62197 3991 ft 227 kts 44°
2026-05-05 09:54 25.36583 51.63644 4908 ft 233 kts 73°
2026-05-05 09:54 25.36560 51.65356 6058 ft 229 kts 109°
2026-05-05 09:55 25.35609 51.66770 6903 ft 238 kts 144°
2026-05-05 09:55 25.34239 51.67796 7835 ft 236 kts 146°
2026-05-05 09:55 25.32870 51.68781 8783 ft 236 kts 140°
2026-05-05 09:55 25.31712 51.70086 9536 ft 241 kts 123°
2026-05-05 09:56 25.30923 51.71729 10129 ft 245 kts 106°
2026-05-05 09:56 25.30469 51.73553 10726 ft 249 kts 106°
2026-05-05 09:56 25.29771 51.75323 11376 ft 254 kts 118°
2026-05-05 09:56 25.28769 51.77062 11442 ft 290 kts 122°
2026-05-05 09:57 25.27651 51.79122 11149 ft 334 kts 111°
2026-05-05 09:57 25.27093 51.81733 10884 ft 369 kts 90°
2026-05-05 09:57 25.27388 51.84656 10615 ft 400 kts 77°
2026-05-05 09:57 25.27593 51.87840 10567 ft 427 kts 93°
2026-05-05 09:58 25.27002 51.91021 11072 ft 415 kts 108°
2026-05-05 09:58 25.25737 51.93790 11252 ft 384 kts 125°
2026-05-05 09:58 25.24138 51.95994 11112 ft 364 kts 128°
2026-05-05 09:58 25.22524 51.98136 10841 ft 364 kts 128°
2026-05-05 09:59 25.20901 52.00282 10561 ft 365 kts 128°
2026-05-05 09:59 25.19269 52.02431 10284 ft 363 kts 128°
2026-05-05 09:59 25.17656 52.04546 10012 ft 358 kts 128°
2026-05-05 09:59 25.16049 52.06643 9739 ft 358 kts 128°
2026-05-05 10:00 25.14500 52.08780 9445 ft 356 kts 125°
2026-05-05 10:00 25.13088 52.11001 9152 ft 352 kts 120°
2026-05-05 10:00 25.11905 52.13353 8853 ft 349 kts 113°
2026-05-05 10:00 25.10945 52.15769 8558 ft 347 kts 109°
2026-05-05 10:01 25.10106 52.18249 8269 ft 344 kts 107°
2026-05-05 10:01 25.09330 52.20733 7983 ft 342 kts 106°
2026-05-05 10:01 25.08575 52.23221 7703 ft 340 kts 106°
2026-05-05 10:01 25.07828 52.25688 7425 ft 339 kts 106°
2026-05-05 10:02 25.07079 52.28148 7144 ft 337 kts 106°
2026-05-05 10:02 25.06331 52.30597 6874 ft 335 kts 106°
2026-05-05 10:02 25.05585 52.33026 6584 ft 335 kts 107°
2026-05-05 10:02 25.04839 52.35455 6338 ft 334 kts 107°
2026-05-05 10:03 25.04089 52.37892 6303 ft 335 kts 107°
2026-05-05 10:03 25.03338 52.40332 6626 ft 337 kts 106°
2026-05-05 10:03 25.02584 52.42776 7356 ft 338 kts 106°
2026-05-05 10:03 25.01824 52.45241 8045 ft 341 kts 106°
2026-05-05 10:04 25.01057 52.47729 8710 ft 345 kts 105°
2026-05-05 10:04 25.00280 52.50252 9379 ft 349 kts 105°
2026-05-05 10:04 24.99516 52.52813 10028 ft 353 kts 104°
2026-05-05 10:04 24.98765 52.55364 10654 ft 357 kts 104°
2026-05-05 10:05 24.97985 52.58015 11297 ft 361 kts 105°
2026-05-05 10:05 24.97216 52.60616 11930 ft 365 kts 105°
2026-05-05 10:05 24.96423 52.63291 12578 ft 368 kts 105°
2026-05-05 10:05 24.95621 52.65987 13220 ft 373 kts 105°
2026-05-05 10:06 24.94829 52.68717 13829 ft 375 kts 102°
2026-05-05 10:06 24.94157 52.71510 14425 ft 378 kts 102°
2026-05-05 10:06 24.93480 52.74321 15025 ft 381 kts 103°
2026-05-05 10:06 24.92796 52.77148 15609 ft 384 kts 103°
2026-05-05 10:07 24.92104 52.80002 16184 ft 387 kts 104°
2026-05-05 10:07 24.91406 52.82878 16750 ft 391 kts 104°
2026-05-05 10:07 24.90698 52.85789 17319 ft 394 kts 105°
2026-05-05 10:07 24.89987 52.88714 17867 ft 397 kts 105°
2026-05-05 10:08 24.89267 52.91669 18367 ft 401 kts 105°
2026-05-05 10:08 24.88540 52.94644 18840 ft 404 kts 105°
2026-05-05 10:08 24.87808 52.97636 19315 ft 407 kts 105°
2026-05-05 10:08 24.87067 53.00660 19785 ft 410 kts 105°
2026-05-05 10:09 24.86321 53.03708 20252 ft 413 kts 105°
2026-05-05 10:09 24.85570 53.06767 20718 ft 416 kts 105°
2026-05-05 10:09 24.84813 53.09854 21171 ft 419 kts 105°
2026-05-05 10:09 24.84049 53.12960 21636 ft 422 kts 105°
2026-05-05 10:10 24.83280 53.16084 22086 ft 425 kts 105°
2026-05-05 10:10 24.82513 53.19197 22518 ft 428 kts 105°
2026-05-05 10:10 24.81731 53.22368 22967 ft 431 kts 105°
2026-05-05 10:10 24.80942 53.25564 23409 ft 433 kts 105°
2026-05-05 10:11 24.80148 53.28777 23749 ft 437 kts 105°
2026-05-05 10:11 24.79346 53.32019 24097 ft 440 kts 105°
2026-05-05 10:11 24.78539 53.35282 24429 ft 443 kts 106°
2026-05-05 10:11 24.77724 53.38566 24761 ft 446 kts 106°
2026-05-05 10:12 24.76904 53.41868 25081 ft 450 kts 106°
2026-05-05 10:12 24.76076 53.45202 25415 ft 452 kts 106°
2026-05-05 10:12 24.75241 53.48557 25716 ft 456 kts 106°
2026-05-05 10:12 24.74402 53.51927 26041 ft 459 kts 106°
2026-05-05 10:13 24.73555 53.55324 26337 ft 462 kts 106°
2026-05-05 10:13 24.72704 53.58738 26635 ft 464 kts 106°
2026-05-05 10:13 24.71845 53.62173 26926 ft 467 kts 106°
2026-05-05 10:13 24.70982 53.65626 27209 ft 470 kts 106°
2026-05-05 10:14 24.70112 53.69104 27494 ft 473 kts 107°
2026-05-05 10:14 24.69235 53.72601 27768 ft 476 kts 107°
2026-05-05 10:14 24.68353 53.76119 28038 ft 478 kts 107°
2026-05-05 10:14 24.67466 53.79653 28305 ft 481 kts 107°
2026-05-05 10:15 24.66571 53.83212 28558 ft 484 kts 107°
2026-05-05 10:15 24.65673 53.86782 28812 ft 486 kts 107°
2026-05-05 10:15 24.64780 53.90326 29051 ft 489 kts 107°
2026-05-05 10:15 24.63870 53.93936 29299 ft 491 kts 107°
2026-05-05 10:16 24.62984 53.97579 29533 ft 494 kts 105°
2026-05-05 10:16 24.62173 54.01257 29788 ft 497 kts 104°
2026-05-05 10:16 24.61379 54.04957 30007 ft 499 kts 104°
2026-05-05 10:16 24.60576 54.08669 30232 ft 501 kts 104°
2026-05-05 10:17 24.59758 54.12402 30457 ft 503 kts 105°
2026-05-05 10:17 24.58929 54.16147 30673 ft 505 kts 105°
2026-05-05 10:17 24.58094 54.19899 30896 ft 507 kts 105°
2026-05-05 10:17 24.57253 54.23669 31115 ft 509 kts 105°
2026-05-05 10:18 24.56409 54.27449 31340 ft 510 kts 105°
2026-05-05 10:18 24.55561 54.31238 31538 ft 513 kts 105°
2026-05-05 10:18 24.54707 54.35052 31724 ft 515 kts 105°
2026-05-05 10:18 24.53852 54.38881 31916 ft 517 kts 104°
2026-05-05 10:19 24.53096 54.42753 32094 ft 519 kts 102°
2026-05-05 10:19 24.52403 54.46643 32253 ft 520 kts 102°
2026-05-05 10:19 24.51711 54.50552 32417 ft 522 kts 102°
2026-05-05 10:19 24.50854 54.54419 32551 ft 522 kts 109°
2026-05-05 10:20 24.49656 54.58179 32675 ft 522 kts 111°
2026-05-05 10:20 24.48437 54.61935 32799 ft 523 kts 111°
2026-05-05 10:20 24.47220 54.65704 32906 ft 524 kts 111°
2026-05-05 10:20 24.46017 54.69434 33004 ft 525 kts 111°
2026-05-05 10:21 24.43575 54.76993 33181 ft 527 kts 111°
2026-05-05 10:21 24.41120 54.84572 33379 ft 527 kts 111°
2026-05-05 10:22 24.39890 54.88361 33500 ft 527 kts 111°
2026-05-05 10:22 24.38662 54.92145 33604 ft 527 kts 111°
2026-05-05 10:22 24.36942 54.97433 33733 ft 527 kts 111°
2026-05-05 10:22 24.34468 55.04979 33919 ft 526 kts 113°
2026-05-05 10:23 24.31828 55.10748 34047 ft 522 kts 125°
2026-05-05 10:23 24.29843 55.14082 34119 ft 522 kts 126°
2026-05-05 10:23 24.25889 55.20763 34289 ft 522 kts 125°
2026-05-05 10:24 24.21949 55.27439 34465 ft 521 kts 125°
2026-05-05 10:24 24.17181 55.36056 34677 ft 523 kts 117°
2026-05-05 10:25 24.14776 55.42297 34786 ft 524 kts 114°
2026-05-05 10:25 24.13365 55.45977 34794 ft 523 kts 115°
2026-05-05 10:25 24.10534 55.53321 34797 ft 523 kts 115°
2026-05-05 10:26 24.07720 55.60607 34796 ft 523 kts 115°
2026-05-05 10:26 24.04651 55.67805 34793 ft 522 kts 120°
2026-05-05 10:27 24.01293 55.74833 34794 ft 521 kts 120°
2026-05-05 10:27 23.97943 55.81866 34793 ft 520 kts 120°
2026-05-05 10:28 23.94589 55.88894 34800 ft 521 kts 120°
2026-05-05 10:28 23.91234 55.95910 34804 ft 521 kts 120°
2026-05-05 10:29 23.87872 56.02931 34814 ft 521 kts 120°
2026-05-05 10:29 23.84510 56.09942 34823 ft 521 kts 120°
2026-05-05 10:30 23.81152 56.16938 34825 ft 521 kts 120°
2026-05-05 10:30 23.77786 56.23941 34828 ft 521 kts 120°
2026-05-05 10:31 23.74418 56.30937 34830 ft 521 kts 120°
2026-05-05 10:31 23.71597 56.36787 34833 ft 520 kts 120°